Regional Weather Roundup
Issued by NWS

Home | Current Version | Previous Version | Graphics & Text | Print | Product List | Glossary On
Versions: 1 2 3 4 5 6 7 8 9 10 11 12 13 14 15 16 17 18 19 20 21 22 23 24 25 26 27 28 29 30 31 32 33 34 35 36 37 38 39 40 41 42 43 44 45 46 47 48 49 50
000
ASUS43 KMPX 201301
RWRMN
WEATHER ROUNDUP FOR MINNESOTA
NATIONAL WEATHER SERVICE TWIN CITIES/CHANHASSEN MN
700 AM CST MON NOV 20 2017


NOTE: "FAIR" INDICATES FEW OR NO CLOUDS BELOW 12,000 FEET WITH NO
SIGNIFICANT WEATHER AND/OR OBSTRUCTIONS TO VISIBILITY. N/A MEANS
CURRENT SKY AND/OR WEATHER CONDITIONS ARE NOT AVAILABLE.

MNZ060>063-068>070-201400-
   Twin Cities Metro

CITY           SKY/WX    TMP DP  RH WIND       PRES   REMARKS
TWIN CITIES    MOCLDY    30  27  88 SE6       29.66F WCI  24
ST PAUL        CLOUDY    28  26  92 S6        29.68F WCI  22
CRYSTAL        CLOUDY    28  23  81 S5        29.65F WCI  23
BLAINE         PTCLDY    28  27  93 SE6       29.66S WCI  22
LAKEVILLE      CLOUDY    30  27  86 S7        29.66F WCI  23
EDEN PRAIRIE   CLOUDY    30  25  81 S6        29.65F WCI  24
SOUTH ST PAUL  CLOUDY    30  27  87 CALM      29.68S
LAKE ELMO      FAIR      30  28  93 CALM      29.68S
$$
MNZ001>005-007-008-013>017-022>024-027-028-201400-
   Northwest Minnesota

CITY           SKY/WX    TMP DP  RH WIND       PRES   REMARKS
BEMIDJI        CLOUDY    25  22  90 SE5       29.48F WCI  19
HALLOCK        CLOUDY    30  27  86 S15       29.39F WCI  19
ROSEAU         CLOUDY    30  25  80 S9        29.42F WCI  22
WARROAD        CLOUDY    28  25  86 SE7       29.43F WCI  21
CROOKSTON      CLOUDY    30  25  80 S15       29.45F WCI  19
FOSSTON        CLOUDY    30  21  69 S9        29.46F WCI  22
DETROIT LAKES  CLOUDY    32  27  80 S10       29.51F WCI  24
MOORHEAD       CLOUDY    28  23  80 S7        29.51F WCI  21
PARK RAPIDS    CLOUDY    25  21  85 SE6       29.52F WCI  18
MAHNOMEN       FAIR      32  25  75 S9        29.47F WCI  25
$$
MNZ006-009>011-018-025>026-201400-
   North Central Minnesota

CITY           SKY/WX    TMP DP  RH WIND       PRES   REMARKS
BAUDETTE       CLOUDY    21  18  88 SE10      29.46F WCI  10
FLAG ISLAND    CLOUDY    23  19  86 S15       29.45F WCI  10
INTL FALLS     CLOUDY    20  16  84 SE7       29.52F WCI  11
WASKISH        CLOUDY    27  25  93 SE8       29.48F WCI  18
BIG FORK       CLOUDY    25  21  86 SE5       29.53F WCI  19
LONGVILLE      CLOUDY    19  19 100 CALM      29.55F
GRAND RAPIDS   CLOUDY    21  19  92 SE6       29.57F WCI  13
CRANE LAKE     CLOUDY    16  14  93 CALM      29.59F
ORR            CLOUDY    21  18  86 E3        29.53F
COOK           CLOUDY    21  19  93 CALM      29.57F
WALKER         FAIR      26  23  89 SE3       29.52F
$$
MNZ012-019>021-037-201400-
   Northeast Minnesota

CITY           SKY/WX    TMP DP  RH WIND       PRES   REMARKS
DULUTH         CLOUDY    23  22  96 SE8       29.61F WCI  14
ELY            CLOUDY    23  21  93 CALM      29.59F
HIBBING        CLOUDY    16  14  92 CALM      29.59F
EVELETH        CLOUDY    18  14  86 NE3       29.60F
DULUTH HARBOR  CLOUDY    23  21  93 CALM      29.67F
TWO HARBORS    CLOUDY    27  21  80 NE5       29.62F WCI  21
SILVER BAY     CLOUDY    18  18 100 CALM      29.64F
GRAND MARAIS     N/A     28  22  78 NE7       29.70F WCI  21
G MARAIS ARPRT CLOUDY    19  16  86 E3        29.64F
$$
MNZ029>031-032-039>041-046>048-054>057-064-201400-
   West Central Minnesota

CITY           SKY/WX    TMP DP  RH WIND       PRES   REMARKS
FERGUS FALLS   CLOUDY    30  25  80 S12       29.54F WCI  21
WHEATON        CLOUDY    27  21  80 SE7       29.55F WCI  19
MORRIS         CLOUDY    27  23  86 SE9       29.54F WCI  17
ALEXANDRIA     CLOUDY    28  23  81 SE6       29.56F WCI  22
ELBOW LAKE     FAIR      30  24  79 E8        29.54F WCI  22
WADENA         CLOUDY    25  21  86 SE3       29.52F
GLENWOOD       CLOUDY    27  23  86 SE7       29.56F WCI  19
APPLETON       CLOUDY    30  23  74 S6        29.56F WCI  24
BENSON         CLOUDY    28  23  80 S6        29.58F WCI  22
ORTONVILLE     CLOUDY    27  21  80 MISG      29.54F
MADISON        CLOUDY    30  25  80 S8        29.55F WCI  23
WILLMAR        FAIR      27  25  93 SE6       29.60F WCI  20
$$
MNZ033>034-036-042>043-049>051-058-059-201400-
   Central Minnesota

CITY           SKY/WX    TMP DP  RH WIND       PRES   REMARKS
ST CLOUD       CLOUDY    23  21  92 SE7       29.61F WCI  15
SAUK CENTRE    FAIR      25  22  89 E5        29.58F WCI  20
PAYNESVILLE    PTCLDY    29  26  90 CALM      29.59F
AITKIN         CLOUDY    23  21  93 CALM      29.57F
PINE RIVER     CLOUDY    21  19  93 CALM      29.60F
BRAINERD       CLOUDY    23  20  88 CALM      29.58F
STAPLES        CLOUDY    25  21  86 SE5       29.55F WCI  19
LONG PRAIRIE   FAIR      23  21  93 SE5       29.58F WCI  17
LITTLE FALLS   CLOUDY    25  19  80 CALM      29.59F
LITCHFIELD     CLOUDY    30  27  86 CALM      29.62F
BUFFALO        CLOUDY    29  25  85 CALM      29.65F
MAPLE LAKE     CLOUDY    26  25  95 SE3       29.65S
HUTCHINSON     CLOUDY    27  24  91 SE5       29.63F WCI  21
$$
MNZ037-044-045-052-053-201400-
   East Central Minnesota

CITY           SKY/WX    TMP DP  RH WIND       PRES   REMARKS
PRINCETON      CLOUDY    27  25  93 CALM      29.62F
MORA           CLOUDY    19  18  93 CALM      29.64F
CAMBRIDGE      CLOUDY    28  25  86 S5        29.64F WCI  23
RUSH CITY      CLOUDY    27  24  89 S5        29.64F WCI  22
MOOSE LAKE     CLOUDY    18  16  93 CALM      29.61F
HINCKLEY       FAIR      19  19 100 CALM      29.64F
CLOQUET        CLOUDY    19  18  93 E3        29.61F
MCGREGOR       CLOUDY    23  21  93 S3        29.59F
$$
MNZ071>073-080-081-089-090-097-098-201400-
   Southwest Minnesota

CITY           SKY/WX    TMP DP  RH WIND       PRES   REMARKS
MONTEVIDEO     CLOUDY    28  23  80 SW7       29.57F WCI  21
GRANITE FALLS  CLOUDY    29  24  82 SE6       29.60F WCI  22
CANBY          CLOUDY    40  26  58 SW9       29.56F
MARSHALL       CLOUDY    35  24  64 CALM      29.58F
REDWOOD FALLS  CLOUDY    28  22  78 SE7       29.60F WCI  21
OLIVIA         CLOUDY    30  27  86 SE8       29.59F WCI  23
PIPESTONE      CLOUDY    27  21  80 CALM      29.61R
WINDOM         CLOUDY    34  18  51 S3        29.62F
WORTHINGTON    CLOUDY    33  24  69 S20       29.61F WCI  21
JACKSON        CLOUDY    32  25  74 S13       29.64F WCI  22
SLAYTON        CLOUDY    31  25  77 S7        29.61F WCI  24
$$
MNZ065>067-074>077-082>085-091>093-201400-
   South Central Minnesota

CITY           SKY/WX    TMP DP  RH WIND       PRES   REMARKS
MANKATO        CLOUDY    30  25  81 S9        29.66F WCI  22
NEW ULM        CLOUDY    28  23  80 CALM      29.62F
ST JAMES       CLOUDY    30  25  80 S10       29.64F WCI  21
FAIRMONT       CLOUDY    28  25  88 S10       29.65F WCI  19
GLENCOE        CLOUDY    31  27  86 SE5       29.63F WCI  26
FARIBAULT      CLOUDY    30  27  86 S6        29.67F WCI  24
OWATONNA       CLOUDY    32  27  80 S12       29.67F WCI  23
WASECA         CLOUDY    32  27  80 S9        29.68F WCI  24
ALBERT LEA     CLOUDY    34  25  69 S8        29.68F WCI  27
$$
MNZ078>079-086>088-094>096-201400-
   Southeast Minnesota

CITY           SKY/WX    TMP DP  RH WIND       PRES   REMARKS
ROCHESTER      CLOUDY    30  26  85 S14       29.70F WCI  19
RED WING       CLOUDY    30  25  80 SE6       29.69F WCI  24
STANTON        CLOUDY    33  27  79 S8        29.66F WCI  26
DODGE CENTER   CLOUDY    30  25  80 S12       29.68F WCI  21
WINONA         CLOUDY    34  28  80 SE7       29.74F WCI  28
AUSTIN         CLOUDY    28  25  86 S9        29.70F WCI  20
PRESTON        CLOUDY    31  25  79 SW13      29.72F WCI  21
$$
ABBREVIATIONS USED IN REMARKS
   TC - TEMPERATURES IN CELSIUS
  WCI - WIND CHILL INDEX
   HX - HEAT INDEX
  VSB - VISIBILITY
$$




USA.gov is the U.S. government's official web portal to all federal, state and local government web resources and services.